Radiation Dose at Monitoring Post of Fukushima Daini Nuclear Power Station
Date,Time,MP-1(microSv/h),MP-2(microSv/h),MP-3(microSv/h),MP-4(microSv/h),MP-5(microSv/h),MP-6(microSv/h),MP-7(microSv/h),Wind Direction,Wind Velocity(m/s),Rain
2021/05/24,00:00,0.163,0.148,0.234,0.227,0.231,0.127,0.079,north-northwest,3.1,No
2021/05/24,00:10,0.164,0.148,0.233,0.226,0.230,0.127,0.080,south-southwest,1.2,No
2021/05/24,00:20,0.163,0.147,0.233,0.227,0.230,0.128,0.079,west,2.6,No
2021/05/24,00:30,0.163,0.148,0.234,0.226,0.230,0.127,0.079,northwest,1.8,No
2021/05/24,00:40,0.164,0.148,0.233,0.227,0.231,0.128,0.079,west-northwest,3.8,No
2021/05/24,00:50,0.164,0.147,0.234,0.227,0.230,0.127,0.079,east,0.8,No
2021/05/24,01:00,0.163,0.148,0.234,0.227,0.230,0.128,0.079,east,1.4,No
2021/05/24,01:10,0.163,0.147,0.235,0.225,0.230,0.127,0.079,east-southeast,1.6,No
2021/05/24,01:20,0.163,0.148,0.233,0.228,0.230,0.127,0.079,east-southeast,3.1,No
2021/05/24,01:30,0.164,0.148,0.234,0.227,0.229,0.127,0.079,east-southeast,3.4,No
2021/05/24,01:40,0.164,0.147,0.234,0.229,0.231,0.127,0.079,east-southeast,2.7,No
2021/05/24,01:50,0.164,0.148,0.234,0.226,0.230,0.126,0.079,east,2.9,No
2021/05/24,02:00,0.162,0.148,0.235,0.229,0.231,0.127,0.079,east-northeast,2.2,No
2021/05/24,02:10,0.163,0.149,0.234,0.228,0.229,0.128,0.079,north-northwest,2.0,No
2021/05/24,02:20,0.163,0.148,0.235,0.227,0.231,0.126,0.080,northwest,4.4,No
2021/05/24,02:30,0.164,0.147,0.233,0.227,0.229,0.127,0.079,northwest,6.3,No
2021/05/24,02:40,0.164,0.147,0.235,0.227,0.231,0.127,0.080,west-northwest,6.2,No
2021/05/24,02:50,0.163,0.148,0.233,0.228,0.228,0.128,0.079,northwest,4.8,No
2021/05/24,03:00,0.164,0.148,0.233,0.226,0.231,0.127,0.079,west-northwest,5.3,No
2021/05/24,03:10,0.163,0.148,0.234,0.227,0.229,0.128,0.080,west-northwest,4.0,No
2021/05/24,03:20,0.164,0.148,0.233,0.226,0.230,0.128,0.079,west-northwest,3.9,No
2021/05/24,03:30,0.163,0.148,0.234,0.227,0.229,0.127,0.079,northwest,2.4,No
2021/05/24,03:40,0.164,0.148,0.234,0.226,0.231,0.128,0.079,-,CALM,No
2021/05/24,03:50,0.162,0.148,0.233,0.227,0.229,0.127,0.079,-,CALM,No
2021/05/24,04:00,0.165,0.148,0.234,0.227,0.231,0.128,0.080,west-southwest,2.8,No
2021/05/24,04:10,0.163,0.149,0.234,0.226,0.231,0.127,0.080,west-southwest,4.1,No
2021/05/24,04:20,0.165,0.149,0.235,0.228,0.230,0.127,0.080,west-southwest,3.5,No
2021/05/24,04:30,0.163,0.148,0.234,0.227,0.231,0.127,0.079,west,3.0,No
2021/05/24,04:40,0.163,0.149,0.234,0.227,0.229,0.126,0.079,southwest,2.7,No
2021/05/24,04:50,0.164,0.148,0.235,0.227,0.231,0.127,0.080,west,1.8,No
2021/05/24,05:00,0.164,0.148,0.232,0.226,0.229,0.127,0.080,west-northwest,2.8,No
2021/05/24,05:10,0.164,0.149,0.235,0.228,0.230,0.128,0.079,west-northwest,3.7,No
2021/05/24,05:20,0.163,0.148,0.233,0.226,0.229,0.128,0.079,west-northwest,1.5,No
2021/05/24,05:30,0.165,0.148,0.234,0.228,0.232,0.128,0.079,north-northwest,0.8,No
2021/05/24,05:40,0.163,0.147,0.234,0.227,0.228,0.128,0.080,north,1.6,No
2021/05/24,05:50,0.164,0.149,0.234,0.228,0.232,0.128,0.079,north,2.3,No
2021/05/24,06:00,0.163,0.147,0.235,0.226,0.229,0.127,0.080,north,2.9,No
2021/05/24,06:10,0.165,0.148,0.234,0.228,0.231,0.127,0.079,north,2.6,No
2021/05/24,06:20,0.164,0.148,0.234,0.227,0.229,0.128,0.080,north,1.5,No
2021/05/24,06:30,0.165,0.149,0.234,0.228,0.230,0.127,0.080,southeast,0.6,No
2021/05/24,06:40,0.163,0.148,0.233,0.226,0.230,0.128,0.079,southeast,1.4,No
2021/05/24,06:50,0.164,0.147,0.233,0.228,0.230,0.128,0.079,south-southeast,1.5,No
2021/05/24,07:00,0.164,0.149,0.233,0.225,0.231,0.127,0.080,east-southeast,2.1,No
2021/05/24,07:10,0.163,0.147,0.235,0.228,0.229,0.127,0.079,southeast,1.9,No
2021/05/24,07:20,0.164,0.146,0.232,0.226,0.229,0.128,0.078,southeast,2.1,No
2021/05/24,07:30,0.163,0.148,0.230,0.225,0.230,0.128,0.079,southeast,2.4,No
2021/05/24,07:40,0.164,0.147,0.233,0.227,0.228,0.128,0.080,south-southeast,2.7,No
2021/05/24,07:50,0.162,0.147,0.235,0.226,0.232,0.127,0.079,south,2.2,No
2021/05/24,08:00,0.163,0.149,0.232,0.224,0.230,0.129,0.079,south-southeast,1.1,No
2021/05/24,08:10,0.163,0.148,0.231,0.228,0.228,0.128,0.079,south-southeast,1.2,No
2021/05/24,08:20,0.164,0.147,0.231,0.228,0.231,0.128,0.080,southeast,2.1,No
2021/05/24,08:30,0.164,0.146,0.232,0.227,0.232,0.128,0.080,south-southeast,2.5,No
2021/05/24,08:40,0.163,0.147,0.236,0.226,0.229,0.128,0.078,southeast,1.8,No
2021/05/24,08:50,0.162,0.148,0.235,0.226,0.227,0.127,0.079,southeast,1.7,No
2021/05/24,09:00,0.164,0.148,0.233,0.224,0.230,0.128,0.080,southeast,2.7,No
2021/05/24,09:10,0.164,0.148,0.233,0.227,0.232,0.128,0.080,southeast,3.8,No
2021/05/24,09:20,0.164,0.149,0.232,0.230,0.230,0.127,0.079,southeast,5.0,No
2021/05/24,09:30,0.162,0.148,0.235,0.228,0.229,0.127,0.079,south-southeast,6.5,No
2021/05/24,09:40,0.164,0.147,0.236,0.226,0.229,0.127,0.079,south,8.7,No
2021/05/24,09:50,0.164,0.148,0.234,0.225,0.231,0.127,0.079,south-southeast,8.6,No
2021/05/24,10:00,0.163,0.149,0.234,0.224,0.231,0.129,0.079,south-southeast,9.3,No
2021/05/24,10:10,0.161,0.148,0.233,0.228,0.228,0.127,0.079,south-southeast,10.1,No
2021/05/24,10:20,0.163,0.147,0.235,0.228,0.229,0.128,0.079,south-southeast,10.4,No
2021/05/24,10:30,0.165,0.147,0.236,0.228,0.230,0.128,0.078,south-southeast,10.9,No
2021/05/24,10:40,0.164,0.148,0.236,0.226,0.232,0.128,0.079,south-southeast,9.5,No
2021/05/24,10:50,0.163,0.149,0.234,0.226,0.231,0.128,0.079,south,9.5,No
2021/05/24,11:00,0.163,0.149,0.233,0.230,0.228,0.127,0.079,south,9.6,No
2021/05/24,11:10,0.161,0.148,0.233,0.230,0.227,0.126,0.079,south,9.5,No
2021/05/24,11:20,0.163,0.147,0.234,0.227,0.228,0.128,0.078,south-southeast,9.3,No
2021/05/24,11:30,0.165,0.147,0.232,0.228,0.231,0.128,0.080,south,9.0,No
2021/05/24,11:40,0.164,0.148,0.234,0.226,0.233,0.128,0.080,south-southeast,9.5,No
2021/05/24,11:50,0.163,0.149,0.234,0.227,0.231,0.127,0.080,south-southeast,8.8,No
2021/05/24,12:00,0.163,0.149,0.238,0.230,0.230,0.128,0.079,south,9.2,No
2021/05/24,12:10,0.162,0.149,0.236,0.229,0.229,0.128,0.079,south,8.7,No
2021/05/24,12:20,0.162,0.148,0.237,0.228,0.229,0.129,0.079,south,9.0,No
2021/05/24,12:30,0.162,0.147,0.236,0.227,0.229,0.128,0.079,south,9.3,No
2021/05/24,12:40,0.165,0.147,0.234,0.228,0.229,0.129,0.080,south,7.5,No
2021/05/24,12:50,0.165,0.149,0.233,0.230,0.232,0.128,0.080,south,8.1,No
2021/05/24,13:00,0.164,0.149,0.233,0.230,0.233,0.127,0.079,south,8.1,No
2021/05/24,13:10,0.164,0.149,0.236,0.229,0.231,0.128,0.079,south,7.0,No
2021/05/24,13:20,0.163,0.149,0.237,0.227,0.230,0.129,0.080,south,8.8,No
2021/05/24,13:30,0.164,0.149,0.237,0.229,0.230,0.128,0.080,south,8.5,No
2021/05/24,13:40,0.164,0.150,0.235,0.231,0.233,0.129,0.080,south,8.9,No
2021/05/24,13:50,0.163,0.149,0.234,0.230,0.231,0.129,0.079,south,8.5,No
2021/05/24,14:00,0.164,0.148,0.238,0.228,0.230,0.129,0.080,south-southeast,7.5,No
2021/05/24,14:10,0.166,0.150,0.237,0.229,0.229,0.127,0.080,south-southeast,8.4,No
2021/05/24,14:20,0.165,0.149,0.235,0.230,0.234,0.129,0.079,south,7.6,No
2021/05/24,14:30,0.164,0.148,0.235,0.229,0.232,0.129,0.079,south-southeast,7.7,No
2021/05/24,14:40,0.164,0.149,0.237,0.227,0.230,0.128,0.080,south,7.2,No
2021/05/24,14:50,0.165,0.150,0.236,0.231,0.233,0.129,0.080,south-southeast,6.6,No
2021/05/24,15:00,0.164,0.149,0.235,0.231,0.234,0.129,0.080,south-southeast,5.9,No
2021/05/24,15:10,0.163,0.150,0.236,0.230,0.231,0.128,0.080,south-southeast,6.1,No
2021/05/24,15:20,0.165,0.149,0.239,0.229,0.229,0.128,0.079,south-southeast,5.4,No
2021/05/24,15:30,0.165,0.148,0.236,0.231,0.231,0.129,0.080,south,4.5,No
2021/05/24,15:40,0.164,0.149,0.234,0.229,0.233,0.129,0.080,south,4.9,No
2021/05/24,15:50,0.166,0.151,0.238,0.228,0.232,0.129,0.079,south-southwest,5.8,No
2021/05/24,16:00,0.165,0.148,0.237,0.232,0.229,0.130,0.080,south,4.3,No
2021/05/24,16:10,0.164,0.150,0.236,0.229,0.233,0.129,0.080,south,4.5,No
2021/05/24,16:20,0.165,0.149,0.236,0.227,0.231,0.127,0.080,south,5.5,No
2021/05/24,16:30,0.165,0.148,0.237,0.230,0.231,0.129,0.080,south,6.0,No
2021/05/24,16:40,0.163,0.150,0.236,0.230,0.232,0.129,0.080,south,5.0,No
2021/05/24,16:50,0.165,0.147,0.238,0.229,0.233,0.128,0.080,south-southwest,5.3,No
2021/05/24,17:00,0.165,0.149,0.239,0.230,0.231,0.128,0.079,south-southwest,5.4,No
2021/05/24,17:10,0.164,0.151,0.236,0.231,0.231,0.128,0.079,south-southwest,4.6,No
2021/05/24,17:20,0.166,0.149,0.236,0.228,0.233,0.129,0.080,southwest,2.1,No
2021/05/24,17:30,0.165,0.149,0.240,0.230,0.232,0.129,0.080,west-southwest,2.6,No
2021/05/24,17:40,0.164,0.151,0.237,0.231,0.230,0.128,0.081,west,1.4,No
2021/05/24,17:50,0.166,0.148,0.237,0.228,0.233,0.128,0.081,-,CALM,No
2021/05/24,18:00,0.165,0.150,0.238,0.231,0.232,0.129,0.079,northwest,0.9,No
2021/05/24,18:10,0.164,0.149,0.236,0.232,0.231,0.129,0.080,north,3.5,No
2021/05/24,18:20,0.166,0.149,0.238,0.229,0.234,0.128,0.080,north-northwest,3.7,No
2021/05/24,18:30,0.163,0.150,0.236,0.231,0.230,0.129,0.080,north,2.8,No
2021/05/24,18:40,0.166,0.149,0.236,0.230,0.233,0.128,0.081,north-northeast,2.6,No
2021/05/24,18:50,0.164,0.150,0.238,0.229,0.234,0.129,0.079,northeast,3.3,No
2021/05/24,19:00,0.165,0.149,0.236,0.230,0.231,0.130,0.080,northeast,2.0,No
2021/05/24,19:10,0.166,0.150,0.238,0.229,0.233,0.128,0.079,northeast,2.4,No
2021/05/24,19:20,0.163,0.150,0.238,0.231,0.232,0.129,0.081,north-northeast,1.8,No
2021/05/24,19:30,0.165,0.149,0.238,0.229,0.232,0.129,0.080,northeast,1.6,No
2021/05/24,19:40,0.165,0.150,0.237,0.232,0.232,0.129,0.080,northeast,2.3,No
2021/05/24,19:50,0.164,0.149,0.237,0.229,0.231,0.129,0.080,northeast,2.5,No
2021/05/24,20:00,0.166,0.150,0.238,0.230,0.233,0.128,0.080,east-northeast,2.6,No
2021/05/24,20:10,0.165,0.149,0.235,0.231,0.230,0.130,0.080,north-northeast,3.2,No
2021/05/24,20:20,0.167,0.149,0.238,0.228,0.232,0.129,0.080,north,2.7,No
2021/05/24,20:30,0.164,0.149,0.236,0.231,0.233,0.129,0.080,north,2.6,No
2021/05/24,20:40,0.166,0.150,0.238,0.230,0.232,0.129,0.079,north,2.2,No
2021/05/24,20:50,0.165,0.149,0.237,0.231,0.232,0.128,0.081,north-northwest,1.8,No
2021/05/24,21:00,0.164,0.150,0.238,0.229,0.232,0.129,0.080,north-northwest,1.7,No
2021/05/24,21:10,0.165,0.149,0.237,0.231,0.234,0.128,0.081,north,1.7,No
2021/05/24,21:20,0.165,0.151,0.237,0.229,0.231,0.129,0.081,northwest,0.6,No
2021/05/24,21:30,0.165,0.148,0.236,0.231,0.233,0.129,0.080,north-northwest,0.9,No
2021/05/24,21:40,0.164,0.149,0.238,0.230,0.231,0.128,0.080,north,2.0,No
2021/05/24,21:50,0.166,0.148,0.237,0.230,0.232,0.129,0.081,north,4.2,No
2021/05/24,22:00,0.164,0.150,0.238,0.230,0.231,0.128,0.081,north-northwest,3.8,No
2021/05/24,22:10,0.165,0.149,0.237,0.229,0.232,0.128,0.081,north-northwest,4.6,No
2021/05/24,22:20,0.165,0.150,0.238,0.232,0.232,0.129,0.080,north-northwest,5.2,No
2021/05/24,22:30,0.165,0.149,0.237,0.230,0.230,0.130,0.080,northwest,3.0,No
2021/05/24,22:40,0.165,0.151,0.238,0.231,0.234,0.129,0.081,northwest,1.8,No
2021/05/24,22:50,0.165,0.148,0.238,0.229,0.232,0.129,0.080,west-southwest,0.9,No
2021/05/24,23:00,0.166,0.150,0.237,0.231,0.233,0.128,0.081,south,1.2,No
2021/05/24,23:10,0.165,0.149,0.237,0.231,0.232,0.129,0.080,south,3.5,No
2021/05/24,23:20,0.165,0.151,0.238,0.231,0.234,0.128,0.080,south,5.4,No
2021/05/24,23:30,0.164,0.150,0.237,0.228,0.231,0.129,0.080,south,4.6,No
2021/05/24,23:40,0.166,0.150,0.238,0.231,0.234,0.128,0.081,south,3.1,No
2021/05/24,23:50,0.165,0.149,0.236,0.229,0.231,0.129,0.079,south-southeast,1.6,No
